RJA445 OLBA-HEGN

Flight info

Callsign RJA445
Flight time 1h 16m
Altitude 36000
Route GAFAZ T99 TOMAL J10 NALSO R650 IMLUX IMLUX1A
Aircraft A320/M-SDE3FGHIRWY/LB1

Departure

Time 2026-05-07 17:32
Airport Beirut Rafic Hariri International Airport (OLBA)

Arrival

Time 2026-05-07 18:48
Airport Hurghada International Airport (HEGN)
Time Latitude Longitude Altitude Speed Heading
2026-05-07 17:23 33.83666 35.49014 0 ft 0 kts 358°
2026-05-07 17:26 33.83649 35.49015 73 ft 4 kts 357°
2026-05-07 17:26 33.83630 35.49017 75 ft 2 kts 320°
2026-05-07 17:26 33.83624 35.49028 88 ft 2 kts 270°
2026-05-07 17:26 33.83624 35.49041 87 ft 0 kts 267°
2026-05-07 17:29 33.83623 35.49010 76 ft 6 kts 267°
2026-05-07 17:29 33.83630 35.48965 87 ft 7 kts 297°
2026-05-07 17:29 33.83679 35.48943 88 ft 8 kts 354°
2026-05-07 17:30 33.83738 35.48936 91 ft 9 kts 356°
2026-05-07 17:30 33.83810 35.48920 90 ft 13 kts 326°
2026-05-07 17:30 33.83830 35.48821 94 ft 12 kts 267°
2026-05-07 17:30 33.83817 35.48723 97 ft 12 kts 246°
2026-05-07 17:31 33.83735 35.48705 93 ft 14 kts 176°
2026-05-07 17:31 33.83579 35.48716 92 ft 48 kts 176°
2026-05-07 17:31 33.82986 35.48755 85 ft 119 kts 178°
2026-05-07 17:31 33.81973 35.48831 113 ft 166 kts 175°
2026-05-07 17:32 33.80830 35.48932 791 ft 165 kts 175°
2026-05-07 17:32 33.79668 35.49002 1518 ft 169 kts 176°
2026-05-07 17:32 33.78471 35.48950 2063 ft 183 kts 186°
2026-05-07 17:32 33.77593 35.48805 2346 ft 195 kts 186°
2026-05-07 17:33 33.75699 35.48457 2952 ft 221 kts 188°
2026-05-07 17:33 33.74125 35.48163 3550 ft 237 kts 186°
2026-05-07 17:33 33.72429 35.47864 4190 ft 256 kts 186°
2026-05-07 17:33 33.70628 35.47554 4975 ft 265 kts 186°
2026-05-07 17:34 33.68793 35.47246 5935 ft 266 kts 186°
2026-05-07 17:34 33.66949 35.46945 6901 ft 268 kts 186°
2026-05-07 17:34 33.65093 35.46645 7843 ft 270 kts 186°
2026-05-07 17:34 33.63225 35.46342 8769 ft 272 kts 186°
2026-05-07 17:35 33.61345 35.46037 9660 ft 273 kts 186°
2026-05-07 17:35 33.59450 35.45732 10428 ft 280 kts 187°
2026-05-07 17:35 33.57483 35.45412 10894 ft 297 kts 187°
2026-05-07 17:35 33.55377 35.45069 11390 ft 312 kts 188°
2026-05-07 17:36 33.53198 35.44717 12087 ft 318 kts 188°
2026-05-07 17:36 33.50991 35.44362 12863 ft 322 kts 189°
2026-05-07 17:36 33.48760 35.43997 13560 ft 327 kts 190°
2026-05-07 17:36 33.46483 35.43626 14208 ft 333 kts 191°
2026-05-07 17:37 33.44171 35.43252 14812 ft 339 kts 191°
2026-05-07 17:37 33.41800 35.42872 15376 ft 347 kts 191°
2026-05-07 17:37 33.39383 35.42482 15960 ft 352 kts 191°
2026-05-07 17:37 33.36945 35.42089 16606 ft 355 kts 191°
2026-05-07 17:38 33.34486 35.41694 17272 ft 358 kts 191°
2026-05-07 17:38 33.32009 35.41298 17910 ft 360 kts 191°
2026-05-07 17:38 33.29516 35.40900 18554 ft 362 kts 192°
2026-05-07 17:38 33.27011 35.40496 19162 ft 365 kts 192°
2026-05-07 17:39 33.25341 35.40227 19540 ft 367 kts 192°
2026-05-07 17:39 33.22798 35.39818 20106 ft 370 kts 192°
2026-05-07 17:39 33.20228 35.39405 20682 ft 374 kts 192°
2026-05-07 17:39 33.17644 35.38993 21233 ft 376 kts 192°
2026-05-07 17:40 33.15036 35.38574 21754 ft 379 kts 192°
2026-05-07 17:40 33.12413 35.38152 22281 ft 382 kts 192°
2026-05-07 17:40 33.09767 35.37728 22804 ft 384 kts 192°
2026-05-07 17:40 33.07108 35.37302 23318 ft 387 kts 192°
2026-05-07 17:41 33.04434 35.36873 23796 ft 389 kts 192°
2026-05-07 17:41 33.01772 35.36448 24264 ft 392 kts 192°
2026-05-07 17:41 32.99023 35.36011 24749 ft 394 kts 192°
2026-05-07 17:41 32.96332 35.35584 25157 ft 398 kts 192°
2026-05-07 17:42 32.93578 35.35147 25594 ft 400 kts 192°
2026-05-07 17:42 32.90808 35.34708 26079 ft 401 kts 192°
2026-05-07 17:42 32.88031 35.34264 26510 ft 403 kts 192°
2026-05-07 17:42 32.85241 35.33818 26932 ft 406 kts 192°
2026-05-07 17:43 32.82429 35.33368 27317 ft 408 kts 192°
2026-05-07 17:43 32.79608 35.32919 27698 ft 411 kts 192°
2026-05-07 17:43 32.76766 35.32468 28080 ft 413 kts 192°
2026-05-07 17:43 32.73905 35.32013 28457 ft 416 kts 192°
2026-05-07 17:44 32.71025 35.31558 28811 ft 419 kts 192°
2026-05-07 17:44 32.68120 35.31100 29166 ft 421 kts 192°
2026-05-07 17:44 32.65212 35.30643 29537 ft 423 kts 192°
2026-05-07 17:44 32.62284 35.30181 29896 ft 425 kts 192°
2026-05-07 17:45 32.59380 35.29745 30230 ft 428 kts 188°
2026-05-07 17:45 32.56380 35.29716 30562 ft 435 kts 179°
2026-05-07 17:45 32.53336 35.30273 30889 ft 442 kts 170°
2026-05-07 17:45 32.50404 35.31298 31191 ft 445 kts 167°
2026-05-07 17:46 32.47447 35.32380 31584 ft 445 kts 167°
2026-05-07 17:46 32.44489 35.33451 32025 ft 443 kts 167°
2026-05-07 17:46 32.41546 35.34508 32445 ft 442 kts 167°
2026-05-07 17:46 32.38605 35.35557 32853 ft 441 kts 167°
2026-05-07 17:47 32.35677 35.36596 33271 ft 439 kts 168°
2026-05-07 17:47 32.32747 35.37635 33672 ft 438 kts 167°
2026-05-07 17:47 32.29842 35.38668 34147 ft 434 kts 167°
2026-05-07 17:47 32.26966 35.39696 34662 ft 430 kts 167°
2026-05-07 17:48 32.24115 35.40718 35084 ft 427 kts 167°
2026-05-07 17:48 32.21282 35.41733 35522 ft 423 kts 167°
2026-05-07 17:48 32.18472 35.42739 35882 ft 421 kts 167°
2026-05-07 17:48 32.15668 35.43740 36058 ft 420 kts 167°
2026-05-07 17:49 32.10129 35.45713 36082 ft 415 kts 168°
2026-05-07 17:49 32.04600 35.47668 36085 ft 413 kts 168°
2026-05-07 17:50 31.99108 35.49620 36085 ft 413 kts 168°
2026-05-07 17:50 31.93552 35.51219 36085 ft 406 kts 179°
2026-05-07 17:51 31.87968 35.51026 36077 ft 399 kts 189°
2026-05-07 17:51 31.82432 35.50355 36081 ft 399 kts 191°
2026-05-07 17:52 31.76994 35.49318 36081 ft 397 kts 195°
2026-05-07 17:52 31.71595 35.47990 36085 ft 396 kts 196°
2026-05-07 17:53 31.66208 35.46598 36083 ft 396 kts 195°
2026-05-07 17:53 31.60807 35.45285 36083 ft 397 kts 195°
2026-05-07 17:54 31.55382 35.44080 36080 ft 397 kts 193°
2026-05-07 17:54 31.49956 35.42900 36070 ft 397 kts 194°
2026-05-07 17:55 31.44524 35.41701 36078 ft 397 kts 194°
2026-05-07 17:55 31.39093 35.40495 36084 ft 397 kts 194°
2026-05-07 17:56 31.33674 35.39288 36079 ft 397 kts 193°
2026-05-07 17:56 31.28146 35.38630 36077 ft 399 kts 189°
2026-05-07 17:57 31.23550 35.38149 36076 ft 399 kts 189°
2026-05-07 17:57 31.17132 35.37485 36100 ft 394 kts 189°
2026-05-07 17:58 31.11662 35.36917 36092 ft 395 kts 189°
2026-05-07 17:58 31.06188 35.36353 36087 ft 395 kts 188°
2026-05-07 17:59 31.00708 35.35795 36090 ft 395 kts 189°
2026-05-07 17:59 30.95253 35.35127 36090 ft 392 kts 195°
2026-05-07 18:00 30.90151 35.33051 36081 ft 388 kts 206°
2026-05-07 18:00 30.85179 35.30585 36080 ft 389 kts 205°
2026-05-07 18:01 30.80226 35.28145 36081 ft 389 kts 205°
2026-05-07 18:01 30.75239 35.25694 36082 ft 390 kts 205°
2026-05-07 18:02 30.67750 35.22012 36086 ft 390 kts 205°
2026-05-07 18:03 30.62756 35.19560 36087 ft 390 kts 205°
2026-05-07 18:03 30.57753 35.17111 36083 ft 390 kts 205°
2026-05-07 18:04 30.52470 35.15529 36078 ft 396 kts 193°
2026-05-07 18:04 30.47032 35.14492 36080 ft 396 kts 193°
2026-05-07 18:05 30.41600 35.13442 36084 ft 396 kts 193°
2026-05-07 18:05 30.36161 35.12389 36086 ft 396 kts 193°
2026-05-07 18:06 30.30723 35.11340 36086 ft 397 kts 193°
2026-05-07 18:06 30.25270 35.10314 36088 ft 397 kts 192°
2026-05-07 18:07 30.19823 35.09284 36089 ft 396 kts 193°
2026-05-07 18:07 30.14411 35.08166 35969 ft 393 kts 193°
2026-05-07 18:08 30.09018 35.07021 35966 ft 394 kts 193°
2026-05-07 18:08 30.03613 35.05897 35970 ft 395 kts 193°
2026-05-07 18:09 29.98193 35.04851 35978 ft 395 kts 192°
2026-05-07 18:09 29.92785 35.03825 35985 ft 393 kts 192°
2026-05-07 18:10 29.87383 35.02778 35983 ft 393 kts 192°
2026-05-07 18:10 29.82000 35.01737 35978 ft 392 kts 192°
2026-05-07 18:11 29.76670 35.00704 35971 ft 393 kts 192°
2026-05-07 18:11 29.71277 34.99654 35970 ft 393 kts 192°
2026-05-07 18:12 29.65932 34.98608 35970 ft 392 kts 194°
2026-05-07 18:12 29.60913 34.96391 35962 ft 386 kts 213°
2026-05-07 18:13 29.56909 34.92323 35952 ft 386 kts 230°
2026-05-07 18:13 29.52977 34.88083 35995 ft 392 kts 213°
2026-05-07 18:14 29.48029 34.85524 36012 ft 390 kts 202°
2026-05-07 18:14 29.42924 34.83428 36002 ft 391 kts 202°
2026-05-07 18:15 29.37801 34.81315 36011 ft 389 kts 202°
2026-05-07 18:15 29.32712 34.79215 36005 ft 389 kts 202°
2026-05-07 18:16 29.27627 34.77117 35992 ft 388 kts 202°
2026-05-07 18:16 29.22538 34.75027 35984 ft 388 kts 202°
2026-05-07 18:17 29.17448 34.72940 35974 ft 388 kts 202°
2026-05-07 18:17 29.12339 34.70847 35951 ft 393 kts 202°
2026-05-07 18:18 29.07192 34.68738 35954 ft 393 kts 202°
2026-05-07 18:18 29.02001 34.66787 35959 ft 395 kts 195°
2026-05-07 18:19 28.96628 34.65401 35960 ft 395 kts 196°
2026-05-07 18:19 28.91258 34.64018 35966 ft 396 kts 196°
2026-05-07 18:20 28.85866 34.62620 35961 ft 398 kts 196°
2026-05-07 18:20 28.80521 34.61234 35974 ft 396 kts 196°
2026-05-07 18:21 28.75125 34.59846 35969 ft 397 kts 196°
2026-05-07 18:21 28.69714 34.58462 35961 ft 399 kts 196°
2026-05-07 18:22 28.64315 34.57069 35982 ft 396 kts 196°
2026-05-07 18:22 28.58947 34.55678 35982 ft 395 kts 196°
2026-05-07 18:23 28.53580 34.54299 35977 ft 395 kts 196°
2026-05-07 18:23 28.50894 34.53611 35830 ft 396 kts 196°
2026-05-07 18:23 28.48218 34.52941 35580 ft 394 kts 195°
2026-05-07 18:23 28.45536 34.52291 35329 ft 393 kts 195°
2026-05-07 18:24 28.42876 34.51658 34929 ft 389 kts 194°
2026-05-07 18:24 28.40231 34.51035 34466 ft 386 kts 194°
2026-05-07 18:24 28.37611 34.50415 34005 ft 384 kts 194°
2026-05-07 18:24 28.35010 34.49793 33565 ft 381 kts 194°
2026-05-07 18:25 28.33294 34.49380 33269 ft 379 kts 194°
2026-05-07 18:25 28.30728 34.48763 32831 ft 376 kts 194°
2026-05-07 18:25 28.28177 34.48149 32397 ft 374 kts 194°
2026-05-07 18:25 28.25637 34.47539 31966 ft 371 kts 194°
2026-05-07 18:26 28.22305 34.46740 31402 ft 368 kts 194°
2026-05-07 18:26 28.20617 34.46333 31116 ft 367 kts 194°
2026-05-07 18:26 28.18127 34.45733 30704 ft 365 kts 194°
2026-05-07 18:26 28.15650 34.45136 30294 ft 363 kts 194°
2026-05-07 18:27 28.13185 34.44543 29889 ft 361 kts 194°
2026-05-07 18:27 28.10730 34.43953 29496 ft 359 kts 194°
2026-05-07 18:27 28.08282 34.43368 29048 ft 359 kts 195°
2026-05-07 18:27 28.05851 34.42788 28669 ft 356 kts 195°
2026-05-07 18:28 28.03466 34.42220 28296 ft 354 kts 195°
2026-05-07 18:28 28.01092 34.41558 27918 ft 348 kts 201°
2026-05-07 18:28 27.98851 34.40500 27536 ft 342 kts 211°
2026-05-07 18:28 27.96867 34.39126 27170 ft 337 kts 217°
2026-05-07 18:29 27.94908 34.37628 26784 ft 334 kts 216°
2026-05-07 18:29 27.92987 34.36169 26403 ft 331 kts 216°
2026-05-07 18:29 27.91103 34.34743 26026 ft 329 kts 216°
2026-05-07 18:29 27.89206 34.33310 25623 ft 327 kts 216°
2026-05-07 18:30 27.87325 34.31887 25247 ft 324 kts 216°
2026-05-07 18:30 27.85457 34.30473 24847 ft 323 kts 216°
2026-05-07 18:30 27.83589 34.29058 24446 ft 322 kts 216°
2026-05-07 18:30 27.81736 34.27655 24046 ft 320 kts 216°
2026-05-07 18:31 27.79874 34.26247 23657 ft 331 kts 216°
2026-05-07 18:31 27.77945 34.24790 23417 ft 335 kts 216°
2026-05-07 18:31 27.76011 34.23333 22992 ft 333 kts 215°
2026-05-07 18:31 27.74082 34.21886 22566 ft 332 kts 214°
2026-05-07 18:32 27.71957 34.20884 22145 ft 335 kts 193°
2026-05-07 18:32 27.69646 34.20544 21742 ft 334 kts 188°
2026-05-07 18:32 27.67340 34.20305 21349 ft 332 kts 188°
2026-05-07 18:32 27.65042 34.20079 20889 ft 329 kts 188°
2026-05-07 18:33 27.62772 34.19859 20439 ft 327 kts 188°
2026-05-07 18:33 27.60502 34.19646 19991 ft 327 kts 188°
2026-05-07 18:33 27.58240 34.19421 19541 ft 327 kts 189°
2026-05-07 18:33 27.55988 34.19091 19091 ft 326 kts 191°
2026-05-07 18:34 27.53754 34.18685 18717 ft 323 kts 193°
2026-05-07 18:34 27.51554 34.18254 18392 ft 320 kts 193°
2026-05-07 18:34 27.49368 34.17820 17901 ft 322 kts 193°
2026-05-07 18:34 27.47174 34.17394 17671 ft 315 kts 193°
2026-05-07 18:35 27.45053 34.16997 17312 ft 306 kts 192°
2026-05-07 18:35 27.42929 34.16607 16788 ft 309 kts 192°
2026-05-07 18:35 27.40821 34.16224 16212 ft 305 kts 192°
2026-05-07 18:35 27.38734 34.15842 15635 ft 302 kts 192°
2026-05-07 18:36 27.36666 34.15466 15060 ft 300 kts 192°
2026-05-07 18:36 27.34611 34.15095 14482 ft 298 kts 192°
2026-05-07 18:36 27.32572 34.14727 13906 ft 296 kts 192°
2026-05-07 18:36 27.30546 34.14360 13388 ft 294 kts 191°
2026-05-07 18:37 27.28522 34.13994 13062 ft 294 kts 191°
2026-05-07 18:37 27.26506 34.13629 12706 ft 294 kts 192°
2026-05-07 18:37 27.24485 34.13262 12361 ft 293 kts 191°
2026-05-07 18:37 27.22475 34.12896 11998 ft 293 kts 191°
2026-05-07 18:38 27.20460 34.12529 11616 ft 293 kts 191°
2026-05-07 18:38 27.18475 34.12168 11282 ft 285 kts 191°
2026-05-07 18:38 27.16541 34.11818 10984 ft 275 kts 191°
2026-05-07 18:38 27.14707 34.11489 10737 ft 262 kts 191°
2026-05-07 18:39 27.12923 34.11170 10325 ft 256 kts 191°
2026-05-07 18:39 27.11183 34.10856 9926 ft 257 kts 191°
2026-05-07 18:39 27.09420 34.10537 9516 ft 257 kts 191°
2026-05-07 18:39 27.07660 34.10218 9158 ft 256 kts 191°
2026-05-07 18:40 27.05898 34.09899 8866 ft 257 kts 191°
2026-05-07 18:40 27.04131 34.09578 8514 ft 257 kts 191°
2026-05-07 18:40 27.02364 34.09255 8200 ft 255 kts 191°
2026-05-07 18:40 27.00677 34.08882 7948 ft 241 kts 201°
2026-05-07 18:41 26.99248 34.08001 7487 ft 237 kts 223°
2026-05-07 18:41 26.98186 34.06582 7097 ft 236 kts 243°
2026-05-07 18:41 26.97647 34.04854 6702 ft 232 kts 264°
2026-05-07 18:41 26.97657 34.03098 6352 ft 225 kts 282°
2026-05-07 18:42 26.98056 34.01439 5932 ft 223 kts 287°
2026-05-07 18:42 26.98473 33.99768 5416 ft 223 kts 286°
2026-05-07 18:42 26.98891 33.98074 4926 ft 222 kts 286°
2026-05-07 18:42 26.99299 33.96410 4445 ft 221 kts 287°
2026-05-07 18:43 26.99700 33.94782 3998 ft 218 kts 287°
2026-05-07 18:43 27.00098 33.93156 3587 ft 214 kts 287°
2026-05-07 18:43 27.00492 33.91551 3388 ft 213 kts 287°
2026-05-07 18:43 27.00888 33.89946 3250 ft 215 kts 288°
2026-05-07 18:44 27.01282 33.88346 3137 ft 210 kts 288°
2026-05-07 18:44 27.01662 33.86798 3039 ft 202 kts 288°
2026-05-07 18:44 27.02209 33.85393 2829 ft 196 kts 309°
2026-05-07 18:44 27.03251 33.84451 2613 ft 193 kts 336°
2026-05-07 18:45 27.04545 33.84019 2372 ft 195 kts 344°
2026-05-07 18:45 27.05857 33.83637 2123 ft 195 kts 345°
2026-05-07 18:45 27.07165 33.83253 1867 ft 191 kts 345°
2026-05-07 18:45 27.08376 33.82897 1629 ft 171 kts 345°
2026-05-07 18:46 27.09483 33.82570 1417 ft 157 kts 345°
2026-05-07 18:46 27.10481 33.82276 1212 ft 140 kts 345°
2026-05-07 18:46 27.11385 33.82009 1030 ft 129 kts 345°
2026-05-07 18:46 27.12238 33.81756 823 ft 128 kts 345°
2026-05-07 18:47 27.13094 33.81505 639 ft 128 kts 345°
2026-05-07 18:47 27.13947 33.81250 475 ft 127 kts 344°
2026-05-07 18:47 27.14806 33.80997 334 ft 127 kts 344°
2026-05-07 18:47 27.15667 33.80745 207 ft 128 kts 344°
2026-05-07 18:48 27.16533 33.80485 48 ft 123 kts 345°
2026-05-07 18:48 27.17075 33.80324 48 ft 44 kts 347°
2026-05-07 18:48 27.17328 33.80254 51 ft 40 kts 345°
2026-05-07 18:48 27.17585 33.80176 52 ft 37 kts 347°
2026-05-07 18:49 27.17830 33.80105 51 ft 35 kts 345°
2026-05-07 18:49 27.18068 33.80021 51 ft 37 kts 343°
2026-05-07 18:49 27.18310 33.79961 50 ft 29 kts 345°
2026-05-07 18:49 27.18445 33.79955 48 ft 16 kts 50°
2026-05-07 18:50 27.18461 33.80001 50 ft 2 kts 75°
2026-05-07 18:50 27.18467 33.80028 50 ft 6 kts 75°
2026-05-07 18:50 27.18494 33.80067 50 ft 7 kts 34°
2026-05-07 18:50 27.18543 33.80091 51 ft 8 kts 33°
2026-05-07 18:51 27.18571 33.80152 56 ft 0 kts 74°
2026-05-07 18:54 27.18574 33.80163 53 ft 5 kts 74°
2026-05-07 18:54 27.18569 33.80217 58 ft 12 kts 123°
2026-05-07 18:54 27.18486 33.80252 55 ft 14 kts 163°
2026-05-07 18:55 27.18386 33.80284 54 ft 16 kts 166°
2026-05-07 18:55 27.18271 33.80316 55 ft 18 kts 165°
2026-05-07 18:55 27.18202 33.80366 55 ft 8 kts 76°
2026-05-07 18:55 27.18172 33.80425 54 ft 13 kts 157°
2026-05-07 18:56 27.18093 33.80450 52 ft 7 kts 175°
2026-05-07 18:56 27.18070 33.80407 54 ft 8 kts 252°
2026-05-07 18:56 27.18061 33.80373 52 ft 5 kts 252°
2026-05-07 18:56 27.18058 33.80363 54 ft 0 kts 254°